Regional Weather Roundup
Issued by NWS

Home | Current Version | Previous Version | Graphics & Text | Print | Product List | Glossary On
Versions: 1 2 3 4 5 6 7 8 9 10 11 12 13 14 15 16 17 18 19 20 21 22 23 24 25 26 27 28 29 30 31 32 33 34 35 36 37 38 39 40 41 42 43 44 45 46 47 48 49 50
513
ASUS43 KMPX 082210
RWRMN
WEATHER ROUNDUP FOR MINNESOTA
NATIONAL WEATHER SERVICE TWIN CITIES/CHANHASSEN MN
400 PM CST MON FEB 08 2016


NOTE: "FAIR" INDICATES FEW OR NO CLOUDS BELOW 12,000 FEET WITH NO
SIGNIFICANT WEATHER AND/OR OBSTRUCTIONS TO VISIBILITY. N/A MEANS
CURRENT SKY AND/OR WEATHER CONDITIONS ARE NOT AVAILABLE.

MNZ060>063-068>070-082300-
   Twin Cities Metro

CITY           SKY/WX    TMP DP  RH WIND       PRES   REMARKS
TWIN CITIES    CLOUDY    16   5  62 NW21G30   29.96R WCI  -1
ST PAUL        LGT SNOW  16   7  67 NW20      29.97R WCI  -1
CRYSTAL        CLOUDY    17   6  62 NW21G28   29.96R WCI   0
BLAINE         CLOUDY    18   9  68 NW18G28   29.95R WCI   2
LAKEVILLE      PTSUNNY   14   7  73 NW21G26   29.94S WCI  -4
EDEN PRAIRIE   CLOUDY    17   6  62 NW15G28   29.96R WCI   2
SOUTH ST PAUL  LGT SNOW  17   7  66 NW18      29.95S WCI   0
LAKE ELMO      LGT SNOW  18   9  68 NW15G21   29.95R WCI   3
$$
MNZ001>005-007-008-013>017-022>024-027-028-082300-
   Northwest Minnesota

CITY           SKY/WX    TMP DP  RH WIND       PRES   REMARKS
BEMIDJI        CLOUDY     8   2  78 NW22G29   30.03S HAZE    WCI -12
HALLOCK        CLOUDY    12   3  67 NW23G33   30.20R WCI  -7
ROSEAU         CLOUDY    10   3  72 NW25G31   30.11S HAZE    WCI -10
WARROAD        LGT SNOW   9   1  72 NW21G26   30.10S WCI -11
CROOKSTON      SNOW      10   9  92 N29G37    30.20R VSB 1/4 WCI -11
FOSSTON        LGT SNOW   9   3  78 NW22      30.11S VSB 3/4 WCI -11
DETROIT LAKES  CLOUDY    12   5  73 NW29G37   30.09F WCI  -9
MOORHEAD         N/A    N/A N/A N/A N28       30.19R
PARK RAPIDS    MIX PCPN  11   3  70 NW24G32   30.02R WCI  -9
MAHNOMEN       CLOUDY    10   5  79 N30G37    30.10F HAZE    WCI -12
$$
MNZ006-009>011-018-025>026-082300-
   North Central Minnesota

CITY           SKY/WX    TMP DP  RH WIND       PRES   REMARKS
BAUDETTE       LGT SNOW   6  -2  69 NW15G26   30.04S WCI -12
FLAG ISLAND    CLOUDY     5   0  78 N22       30.09R WCI -16
INTL FALLS     LGT SNOW   5  -1  76 NW14G21   30.00S VSB 1   WCI -12
WASKISH        CLOUDY     9   1  72 NW12      30.05R WCI  -6
LONGVILLE      LGT SNOW  10   3  72 NW14G20   29.99S WCI  -5
GRAND RAPIDS   CLOUDY     9   0  66 NW22G29   29.95R WCI -11
ORR            LGT SNOW   5  -2  72 NW9       29.93R WCI  -9
COOK           LGT SNOW   7   0  72 NW10G18   29.94R WCI  -8
WALKER         CLOUDY     9   2  72 NW20G31   30.01R HAZE    WCI -10
$$
MNZ012-019>021-037-082300-
   Northeast Minnesota

CITY           SKY/WX    TMP DP  RH WIND       PRES   REMARKS
DULUTH         LGT SNOW   9   1  70 NW18G28   29.86R BLWGSNOWWCI -10
ELY            LGT SNOW   7   3  85 NW10G18   29.87S WCI  -8
HIBBING        LGT SNOW   6   2  83 NW20      29.92R FOG     WCI -14
EVELETH        LGT SNOW   9   1  72 NW15G24   29.92R WCI  -8
DULUTH HARBOR  CLOUDY    16   5  62 NW13      29.95R WCI   2
TWO HARBORS    CLOUDY    14   3  62 NW10G22   29.86R WCI   1
SILVER BAY     CLOUDY    12   3  67 NW9G18    29.84R HAZE    WCI   0
GRAND MARAIS     N/A     12   2  64 CALM      29.86R
G MARAIS ARPRT LGT SNOW   5  -2  72 NW16G23   29.73R WCI -14
$$
MNZ029>031-032-039>041-046>048-054>057-064-082300-
   West Central Minnesota

CITY           SKY/WX    TMP DP  RH WIND       PRES   REMARKS
FERGUS FALLS   LGT SNOW  12   7  79 N30G38    30.14S WCI  -9
WHEATON        MOSUNNY   18  10  73 NW24G35   30.17R WCI   0
MORRIS         PTSUNNY   14   7  73 N32G39    30.09R HAZE    WCI  -7
ALEXANDRIA     FLURRIES  12   3  67 N25G33    30.05R WCI  -8
ELBOW LAKE     FLURRIES  13   7  76 NW24      30.11R WCI  -7
WADENA         CLOUDY    10   1  67 NW26G32   30.03S WCI -11
GLENWOOD       CLOUDY    12   5  73 NW23G29   30.04S WCI  -7
APPLETON       LGT SNOW  16  10  79 N25G33    30.12R WCI  -3
BENSON         FLURRIES  14   5  67 N23G37    30.09R WCI  -5
ORTONVILLE     PTSUNNY   16   9  73 N22G31    30.12R WCI  -2
MADISON        PTSUNNY   19  10  68 N31G39    30.12R WCI   0
WILLMAR        CLOUDY    18   9  68 NW30G37   30.05R WCI  -2
$$
MNZ033>034-036-042>043-049>051-058-059-082300-
   Central Minnesota

CITY           SKY/WX    TMP DP  RH WIND       PRES   REMARKS
ST CLOUD       CLOUDY    15   5  64 NW18G26   29.98R WCI  -2
SAUK CENTRE    CLOUDY    13   7  77 NW23G31   30.02S HAZE    WCI  -7
PAYNESVILLE    CLOUDY    14   6  70 NW26G35   30.02R WCI  -6
AITKIN         FLURRIES  14   1  57 NW14G26   29.95S WCI  -1
PINE RIVER     FLURRIES  10   3  72 NW16G26   30.02S WCI  -7
BRAINERD       LGT SNOW  12   4  70 N22       29.99R WCI  -7
STAPLES        CLOUDY    10   3  72 NW25G32   30.02R WCI -10
LONG PRAIRIE   CLOUDY    12   5  73 W21G29    30.02R HAZE    WCI  -6
LITTLE FALLS   CLOUDY    16   5  62 NW9G23    30.00S WCI   4
LITCHFIELD     CLOUDY    16   9  73 NW25G31   30.00S WCI  -3
BUFFALO        CLOUDY    17   8  67 NW14G22   29.99R WCI   2
MAPLE LAKE     CLOUDY    17   9  70 NW18G25   30.00R WCI   1
$$
MNZ037-044-045-052-053-082300-
   East Central Minnesota

CITY           SKY/WX    TMP DP  RH WIND       PRES   REMARKS
PRINCETON      CLOUDY    16   7  67 NW13G23   29.97R WCI   2
MORA           LGT SNOW  14   7  73 NW14G28   29.97R WCI  -1
CAMBRIDGE      FLURRIES  18   7  62 NW13G20   29.94R WCI   4
RUSH CITY      CLOUDY    14   6  70 NW12G20   29.95S WCI   1
MOOSE LAKE     CLOUDY    12   3  67 NW13      29.92R WCI  -3
HINCKLEY       LGT SNOW  14   7  73 NW9G20    29.93S WCI   2
CLOQUET        FLURRIES  10   1  67 NW13G22   29.89R WCI  -5
MCGREGOR       CLOUDY    12   5  73 NW18G26   29.96R WCI  -5
$$
MNZ071>073-080-081-089-090-097-098-082300-
   Southwest Minnesota

CITY           SKY/WX    TMP DP  RH WIND       PRES   REMARKS
MONTEVIDEO     PTSUNNY   16  10  79 N25G39    30.11R WCI  -3
GRANITE FALLS  PTSUNNY   20  12  71 NW21G35   30.10S WCI   4
CANBY          LGT SNOW  21  16  78 NW23G32   30.12R WCI   5
MARSHALL       FLURRIES  18  11  74 N28G39    30.07R WCI  -1
REDWOOD FALLS  CLOUDY    18   7  62 NW24G39   30.05R WCI   0
OLIVIA         CLOUDY    18   9  68 NW26G38   30.04R HAZE    WCI  -1
PIPESTONE      SUNNY     21  10  63 N15G28    30.05F WCI   8
WINDOM         SUNNY     16  10  79 NW36G45   30.02R HAZE    WCI  -6
WORTHINGTON    MOSUNNY  N/A N/A N/A NW25      30.05R
JACKSON        CLOUDY    18  10  73 NW35G46   30.02R WCI  -3
TRACY          LGT SNOW  19  13  77 N28G36    30.06S WCI   0
SLAYTON        CLOUDY    17  13  86 NW22G28   30.04F FOG     WCI  -1
$$
MNZ065>067-074>077-082>085-091>093-082300-
   South Central Minnesota

CITY           SKY/WX    TMP DP  RH WIND       PRES   REMARKS
MANKATO        CLOUDY   N/A N/A N/A NW22G29   29.97R
NEW ULM        LGT SNOW  16  10  79 NW25G32   30.00R WCI  -3
ST JAMES       LGT SNOW  18  12  79 NW30      30.03R WCI  -2
FAIRMONT       CLOUDY    18   9  68 NW28      29.98R WCI  -1
GLENCOE        CLOUDY    17  11  75 NW18G29   29.99R WCI   1
FARIBAULT      CLOUDY    16   7  67 NW14G21   29.95R HAZE    WCI   1
OWATONNA       LGT SNOW  16   9  73 NW22      29.93S WCI  -2
WASECA         CLOUDY    18  10  73 NW24      29.97R WCI   0
ALBERT LEA     CLOUDY    16   9  73 NW17G28   29.92S WCI   0
$$
MNZ078>079-086>088-094>096-082300-
   Southeast Minnesota

CITY           SKY/WX    TMP DP  RH WIND       PRES   REMARKS
ROCHESTER      CLOUDY    13   6  74 NW24      29.88S WCI  -7
RED WING       LGT SNOW  18   7  62 NW8       29.93R WCI   7
STANTON        FLURRIES  17   8  67 NW20G25   29.93S WCI   0
DODGE CENTER   FLURRIES  14   7  73 NW24      29.89S WCI  -5
WINONA         CLOUDY    18   9  68 NW17G25   29.92R WCI   2
AUSTIN         LGT SNOW  14   9  79 NW17      29.90S WCI  -3
PRESTON        CLOUDY    13   5  69 N17G23    29.88R WCI  -4
$$
ABBREVIATIONS USED IN REMARKS
   TC - TEMPERATURES IN CELSIUS
  WCI - WIND CHILL INDEX
   HX - HEAT INDEX
  VSB - VISIBILITY
$$




USA.gov is the U.S. government's official web portal to all federal, state and local government web resources and services.